Location: Nickerson Gardens
(33.9320°N, 118.2484°W)
Time: 04:50:04
(UTC+00:00)

N. Korean satellite - Pass Details

Date: 29 January 2021
Orbit: 451 x 502 km, 97.2° (Epoch: 08 March)

Event Time Altitude Azimuth Distance (km) Brightness Sun altitude
Rises 13:58:09 0° 354° (N) 2,479 10.0 -11.4°
Reaches altitude 10° 14:00:33 10° 337° (NNW) 1,595 8.8 -10.9°
Maximum altitude 14:03:07 20° 288° (WNW) 1,106 7.7 -10.4°
Drops below altitude 10° 14:05:39 10° 239° (WSW) 1,579 8.8 -9.9°
Sets 14:08:01 0° 222° (SW) 2,446 9.9 -9.4°
